Change the Weather History Date:

Monday, December 27, 2004

  Actual Average Record
Temperature  
Mean Temperature 73 °F -  
Max Temperature 80 °F 80 °F 87 °F (1997)
Min Temperature 66 °F 63 °F 60 °F (1997)
Cooling Degree Days 8    
Growing Degree Days 23 (Base 50)    
Moisture  
Dew Point 60 °F    
Average Humidity 63    
Maximum Humidity 83    
Minimum Humidity 37    
Precipitation  
Precipitation 0.00 in 0.01 in - ()
Sea Level Pressure  
Sea Level Pressure 29.98 in    
Wind  
Wind Speed 12 mph ()    
Max Wind Speed 21 mph    
Max Gust Speed -    
Visibility 8.1 miles    
Events      
Averages and records for this station are not official NWS values.
T = Trace of Precipitation, MM = Missing Value Source: Averaged Metar Reports

Daily Weather History Graph

Daily Weather History Graph

Search for Another Location

Airport or City:

Trip Planner

Search our weather history database for the weather conditions in past years. The results will help you decide how hot, cold, wet, or windy it might be!

Date:

Astronomy

Dec. 27, 2004 Rise Set
Actual Time 5:51 AM CST 5:24 PM CST
Civil Twilight 5:28 AM CST 5:47 PM CST
Nautical Twilight 5:02 AM CST 6:13 PM CST
Astronomical Twilight 4:36 AM CST 6:40 PM CST
Moon 6:27 PM CST (12/27) 6:43 AM CST (12/27)
Length of Visible Light 12h 18m
Length of Day
11h 32m
Full, 99% of the Moon is Illuminated
Dec 27
Full
Jan 3
Last Quarter
Jan 10
New
Jan 17
First Quarter
Jan 25
Full

Hourly Weather History & Observations

Time (CST) Temp. Heat Index Dew Point Humidity Pressure Visibility Wind Dir Wind Speed Gust Speed Precip Events Conditions
12:00 AM 69 °F - 58 °F 61% 29.90 in 12 mi East 16.1 mph - -  
12:00 AM 69.8 °F - 59.0 °F 68% 30.01 in - East 17.3 mph - N/A   Clear
3:00 AM 69 °F - 60 °F 66% 29.86 in 12 mi East 17.3 mph - -  
4:00 AM 68.0 °F - 60.8 °F 78% 29.99 in - NNE 6.9 mph - N/A   Clear
5:00 AM 66.2 °F - 60.8 °F 83% 30.00 in - East 8.1 mph - N/A   Clear
6:00 AM 67 °F - 61 °F 74% 29.84 in 12 mi East 11.5 mph - -   Scattered Clouds
6:00 AM 68.0 °F - 59.0 °F 73% 30.01 in 6.2 mi ESE 11.5 mph - N/A   Scattered Clouds
7:00 AM 69.8 °F - 59.0 °F 68% 30.03 in 6.2 mi East 17.3 mph - N/A   Scattered Clouds
8:00 AM 69.8 °F - 59.0 °F 68% 30.06 in 6.2 mi ESE 12.7 mph - N/A   Scattered Clouds
9:00 AM 74 °F - 61 °F 54% 29.92 in 9 mi East 13.8 mph - -   Scattered Clouds
9:00 AM 73.4 °F - 60.8 °F 65% 30.06 in 6.2 mi East 13.8 mph - N/A   Scattered Clouds
10:00 AM 77.0 °F - 59.0 °F 54% 30.05 in 6.2 mi East 17.3 mph - N/A   Scattered Clouds
11:00 AM 77.0 °F - 59.0 °F 54% 30.03 in 6.2 mi East 20.7 mph - N/A   Partly Cloudy
12:00 PM 79 °F - 58 °F 37% 29.88 in 12 mi East 17.3 mph - -   Scattered Clouds
12:00 PM 78.8 °F - 57.2 °F 47% 30.02 in 6.2 mi East 17.3 mph - N/A   Partly Cloudy
1:00 PM 80.6 °F 81.1 °F 59.0 °F 48% 30.00 in 6.2 mi East 16.1 mph - N/A   Scattered Clouds
2:00 PM 78.8 °F - 59.0 °F 51% 29.98 in 6.2 mi ENE 17.3 mph - N/A   Scattered Clouds
3:00 PM 79 °F - 59 °F 39% 29.81 in 12 mi East 11.5 mph - -   Scattered Clouds
3:00 PM 78.8 °F - 59.0 °F 51% 29.97 in 6.2 mi East 11.5 mph - N/A   Scattered Clouds
4:00 PM 77.0 °F - 59.0 °F 54% 29.97 in 6.2 mi East 11.5 mph - N/A   Scattered Clouds
5:00 PM 75.2 °F - 59.0 °F 57% 29.98 in 6.2 mi East 11.5 mph - N/A   Partly Cloudy
6:00 PM 69.8 °F - 59.0 °F 68% 29.98 in 6.2 mi ENE 12.7 mph - N/A   Partly Cloudy
7:00 PM 69.8 °F - 59.0 °F 68% 29.99 in - East 13.8 mph - N/A   Clear
8:00 PM 68.0 °F - 60.8 °F 78% 30.02 in - East 17.3 mph - N/A   Clear
9:00 PM 69 °F - 60 °F 66% 29.89 in 12 mi ENE 10.4 mph - -   Scattered Clouds
9:00 PM 69.8 °F - 60.8 °F 73% 30.03 in - ENE 10.4 mph - N/A   Clear
10:00 PM 68.0 °F - 60.8 °F 78% 30.04 in - East 5.8 mph - N/A   Clear
11:00 PM 68.0 °F - 60.8 °F 78% 30.03 in - ENE 6.9 mph - N/A   Clear